Punta Gorda, FL

4:03 PM EST on December 15, 2019 (GMT -0500)
Charlotte County

Weather History for KPGD - September, 2019

Change the Weather History Date:

Thursday, September 26, 2019

  Actual Average Record
Temperature  
Mean Temperature 78 °F -  
Max Temperature 91 °F 86 °F 95 °F (2018)
Min Temperature 66 °F 70 °F 64 °F (2008)
Cooling Degree Days 14    
Growing Degree Days 28 (Base 50)    
Moisture  
Dew Point 68 °F    
Average Humidity 76    
Maximum Humidity 100    
Minimum Humidity 45    
Precipitation  
Precipitation 0.00 in - - ()
Sea Level Pressure  
Sea Level Pressure 29.94 in    
Wind  
Wind Speed 5 mph (ENE)    
Max Wind Speed 12 mph    
Max Gust Speed -    
Visibility 9 miles    
Events      
Averages and records for this station are not official NWS values.
T = Trace of Precipitation, MM = Missing Value Source: NWS Daily Summary

Daily Weather History Graph

Daily Weather History Graph

Search for Another Location

Airport or City:

Astronomy

Sep. 26, 2019 Rise Set
Actual Time 7:18 AM EDT 7:20 PM EDT
Civil Twilight 6:54 AM EDT 7:43 PM EDT
Nautical Twilight 6:28 AM EDT 8:10 PM EDT
Astronomical Twilight 6:00 AM EDT 8:37 PM EDT
Moon 4:46 AM EDT (9/26) 6:13 PM EDT (9/26)
Length of Visible Light 12h 48m
Length of Day
12h 01m
Waning Crescent, 7% of the Moon is Illuminated
Sep 26
Waning Crescent
Sep 28
New
Oct 5
First Quarter
Oct 13
Full
Oct 21
Last Quarter

Hourly Weather History & Observations

Time (EDT) Temp. Heat Index Dew Point Humidity Pressure Visibility Wind Dir Wind Speed Gust Speed Precip Events Conditions
12:53 AM 72.0 °F - 70.0 °F 93% 29.94 in 10.0 mi ESE 3.5 mph - N/A   Clear
1:53 AM 71.1 °F - 69.1 °F 93% 29.92 in 10.0 mi SE 3.5 mph - N/A   Clear
2:53 AM 69.1 °F - 69.1 °F 100% 29.92 in 10.0 mi Calm Calm - N/A   Clear
3:53 AM 69.1 °F - 69.1 °F 100% 29.92 in 10.0 mi Calm Calm - N/A   Clear
4:53 AM 68.0 °F - 68.0 °F 100% 29.92 in 7.0 mi NE 3.5 mph - N/A   Clear
4:59 AM 66.9 °F - 66.9 °F 100% 29.92 in 1.8 mi NE 3.5 mph - N/A   Clear
5:08 AM 66.9 °F - 66.9 °F 100% 29.93 in 3.0 mi NNE 3.5 mph - N/A   Clear
5:53 AM 66.9 °F - 66.9 °F 100% 29.94 in 8.0 mi NE 3.5 mph - N/A   Clear
6:53 AM 66.9 °F - 66.9 °F 100% 29.95 in 8.0 mi NNE 3.5 mph - N/A   Clear
7:53 AM 68.0 °F - 68.0 °F 100% 29.96 in 6.0 mi NE 5.8 mph - N/A   Clear
8:53 AM 75.0 °F - 72.0 °F 90% 29.97 in 10.0 mi NNE 4.6 mph - N/A   Clear
9:53 AM 80.1 °F 82.9 °F 69.1 °F 69% 29.98 in 10.0 mi East 5.8 mph - N/A   Clear
10:53 AM 82.9 °F 85.4 °F 66.9 °F 58% 29.99 in 10.0 mi ESE 6.9 mph - N/A   Clear
11:53 AM 84.9 °F 88.2 °F 68.0 °F 57% 29.98 in 10.0 mi Variable 6.9 mph - N/A   Clear
12:53 PM 87.1 °F 89.9 °F 66.9 °F 51% 29.96 in 10.0 mi Variable 4.6 mph - N/A   Clear
1:53 PM 88.0 °F 91.4 °F 68.0 °F 51% 29.95 in 10.0 mi NE 11.5 mph - N/A   Partly Cloudy
2:53 PM 90.0 °F 93.6 °F 68.0 °F 48% 29.92 in 10.0 mi NE 11.5 mph - N/A   Partly Cloudy
3:53 PM 89.1 °F 92.9 °F 68.0 °F 50% 29.90 in 10.0 mi East 9.2 mph - N/A   Scattered Clouds
4:53 PM 91.0 °F 94.3 °F 66.9 °F 45% 29.89 in 10.0 mi ENE 11.5 mph - N/A   Partly Cloudy
5:53 PM 89.1 °F 92.1 °F 66.9 °F 48% 29.89 in 10.0 mi ENE 11.5 mph - N/A   Partly Cloudy
6:53 PM 84.9 °F 88.2 °F 68.0 °F 57% 29.89 in 10.0 mi East 8.1 mph - N/A   Clear
7:53 PM 82.0 °F 85.9 °F 70.0 °F 67% 29.91 in 10.0 mi ESE 6.9 mph - N/A   Clear
8:53 PM 79.0 °F - 70.0 °F 74% 29.93 in 10.0 mi ESE 6.9 mph - N/A   Clear
9:53 PM 78.1 °F - 69.1 °F 74% 29.94 in 10.0 mi ESE 6.9 mph - N/A   Clear
10:53 PM 77.0 °F - 70.0 °F 79% 29.95 in 10.0 mi ESE 6.9 mph - N/A   Clear
11:53 PM 75.9 °F - 71.1 °F 85% 29.95 in 10.0 mi ESE 8.1 mph - N/A   Clear